Location: Bucquoy
(50.1391°N, 2.7097°E)
Time: 22:34:41
(UTC+00:00)

Cosmos 1378 Rocket - Pass Details

Date: 06 May 2021
Orbit: 602 x 626 km, 82.5° (Epoch: 20 June)

Event Time Altitude Azimuth Distance (km) Brightness Sun altitude
Exits shadow 01:51:09 36° 191° (S) 981 4.1 -17.8°
Maximum altitude 01:52:56 88° 281° (W) 618 3.5 -17.7°
Drops below altitude 10° 01:57:18 10° 10° (N) 1,969 7.2 -17.3°
Sets 01:59:31 0° 10° (N) 2,875 8.2 -17.1°
